| time (UTC) | temp C | wind direction | speed KPH | gust KPH | rain 1hr cm | rain 24hr cm | rain mn cm | humidity % | barometer mb |
| 20260503212143 | 33 | 10 | 3.2 | 8.0 | 0.00 | 0.00 | 0.00 | 22 | 997.9 |
| 20260503211122 | 33 | 348 | 4.8 | 9.7 | 0.00 | 0.00 | 0.00 | 22 | 998.0 |
| 20260503210143 | 31 | 8 | 3.2 | 8.0 | 0.00 | 0.00 | 0.00 | 25 | 998.2 |
| 20260503205122 | 32 | 341 | 4.8 | 14.5 | 0.00 | 0.00 | 0.00 | 26 | 998.4 |
| 20260503204122 | 31 | 358 | 4.8 | 12.9 | 0.00 | 0.00 | 0.00 | 28 | 998.4 |
| 20260503203122 | 32 | 313 | 3.2 | 6.4 | 0.00 | 0.00 | 0.00 | 27 | 998.5 |
| 20260503202122 | 30 | 355 | 6.4 | 14.5 | 0.00 | 0.00 | 0.00 | 30 | 998.7 |
| 20260503201122 | 30 | 7 | 6.4 | 11.3 | 0.00 | 0.00 | 0.00 | 29 | 998.9 |
| 20260503200122 | 30 | 13 | 4.8 | 11.3 | 0.00 | 0.00 | 0.00 | 31 | 999.0 |
| 20260503195143 | 29 | 13 | 4.8 | 9.7 | 0.00 | 0.00 | 0.00 | 33 | 999.1 |
| 20260503194122 | 30 | 10 | 3.2 | 8.0 | 0.00 | 0.00 | 0.00 | 32 | 999.2 |
| 20260503193143 | 30 | 338 | 3.2 | 9.7 | 0.00 | 0.00 | 0.00 | 33 | 999.2 |
| 20260503192122 | 28 | 30 | 6.4 | 14.5 | 0.00 | 0.00 | 0.00 | 35 | 999.4 |
| 20260503191122 | 28 | 332 | 4.8 | 9.7 | 0.00 | 0.00 | 0.00 | 38 | 999.5 |
| 20260503190122 | 27 | 24 | 3.2 | 8.0 | 0.00 | 0.00 | 0.00 | 40 | 999.6 |
| 20260503185123 | 27 | 9 | 3.2 | 6.4 | 0.00 | 0.00 | 0.00 | 39 | 999.8 |
| 20260503184122 | 26 | 10 | 4.8 | 12.9 | 0.00 | 0.00 | 0.00 | 41 | 999.9 |
| 20260503183122 | 25 | 344 | 4.8 | 11.3 | 0.00 | 0.00 | 0.00 | 42 | 1000.0 |
| 20260503182122 | 25 | 345 | 4.8 | 9.7 | 0.00 | 0.00 | 0.00 | 44 | 1000.1 |
| 20260503181122 | 25 | 10 | 4.8 | 12.9 | 0.00 | 0.00 | 0.00 | 43 | 1000.2 |
| 20260503180122 | 23 | 329 | 4.8 | 9.7 | 0.00 | 0.00 | 0.00 | 47 | 1000.3 |
| 20260503175143 | 23 | 349 | 4.8 | 11.3 | 0.00 | 0.00 | 0.00 | 49 | 1000.4 |
| 20260503174122 | 23 | 4 | 4.8 | 9.7 | 0.00 | 0.00 | 0.00 | 50 | 1000.5 |
| 20260503173143 | 22 | 55 | 3.2 | 6.4 | 0.00 | 0.00 | 0.00 | 53 | 1000.5 |
| 20260503172122 | 21 | 17 | 4.8 | 8.0 | 0.00 | 0.00 | 0.00 | 54 | 1000.7 |
| 20260503171122 | 21 | 31 | 3.2 | 8.0 | 0.00 | 0.00 | 0.00 | 54 | 1000.6 |
| 20260503170122 | 20 | 14 | 4.8 | 9.7 | 0.00 | 0.00 | 0.00 | 57 | 1000.6 |
| 20260503160122 | 18 | 26 | 3.2 | 6.4 | 0.00 | 0.00 | 0.00 | 66 | 1001.1 |
| 20260503150143 | 17 | 172 | 0.0 | 3.2 | 0.00 | 0.00 | 0.00 | 76 | 1001.2 |
| 20260503140122 | 11 | 160 | 1.6 | 4.8 | 0.00 | 0.00 | 0.00 | 96 | 1001.2 |
| 20260503131144 | 10 | 154 | 1.6 | 6.4 | 0.00 | 0.00 | 0.00 | 95 | 1001.0 |
| 20260503130122 | 10 | 123 | 1.6 | 4.8 | 0.00 | 0.00 | 0.00 | 95 | 1001.0 |
| 20260503120122 | 10 | 227 | 1.6 | 4.8 | 0.00 | 0.00 | 0.00 | 94 | 1001.0 |
| 20260503110122 | 11 | 43 | 0.0 | 1.6 | 0.00 | 0.00 | 0.00 | 92 | 1001.2 |
| 20260503100122 | 11 | 172 | 0.0 | 0.0 | 0.00 | 0.00 | 0.00 | 91 | 1001.3 |
| 20260503090122 | 12 | 155 | 1.6 | 3.2 | 0.00 | 0.00 | 0.00 | 88 | 1001.5 |
| 20260503081122 | 13 | 162 | 1.6 | 3.2 | 0.00 | 0.00 | 0.00 | 85 | 1001.4 |
| 20260503080122 | 13 | 45 | 0.0 | 1.6 | 0.00 | 0.00 | 0.00 | 85 | 1001.3 |
| 20260503072123 | 15 | 59 | 0.0 | 1.6 | 0.00 | 0.00 | 0.00 | 81 | 1001.5 |
| 20260503071122 | 15 | 31 | 0.0 | 1.6 | 0.00 | 0.00 | 0.00 | 79 | 1001.5 |
| 20260503070122 | 15 | 29 | 0.0 | 0.0 | 0.00 | 0.00 | 0.00 | 78 | 1001.6 |
| 20260503060122 | 17 | 63 | 3.2 | 6.4 | 0.00 | 0.00 | 0.05 | 71 | 1001.1 |
| 20260503055122 | 17 | 32 | 3.2 | 8.0 | 0.00 | 0.00 | 0.05 | 72 | 1000.9 |
| 20260503054122 | 17 | 26 | 3.2 | 6.4 | 0.00 | 0.00 | 0.05 | 71 | 1001.2 |
| 20260503053122 | 17 | 25 | 1.6 | 4.8 | 0.00 | 0.00 | 0.05 | 71 | 1001.4 |
| 20260503052122 | 17 | 16 | 1.6 | 3.2 | 0.00 | 0.00 | 0.05 | 71 | 1001.5 |
| 20260503051122 | 17 | 205 | 3.2 | 3.2 | 0.00 | 0.00 | 0.05 | 71 | 1001.7 |
| 20260503050122 | 17 | 33 | 1.6 | 4.8 | 0.00 | 0.00 | 0.05 | 70 | 1001.7 |
| 20260503045122 | 17 | 7 | 3.2 | 4.8 | 0.00 | 0.00 | 0.05 | 69 | 1001.7 |
| 20260503044122 | 17 | 202 | 3.2 | 4.8 | 0.00 | 0.00 | 0.05 | 68 | 1001.8 |
| 20260503043123 | 18 | 88 | 0.0 | 1.6 | 0.00 | 0.00 | 0.05 | 67 | 1001.6 |
| 20260503042122 | 18 | 22 | 3.2 | 4.8 | 0.00 | 0.00 | 0.05 | 65 | 1001.7 |
| 20260503041122 | 18 | 13 | 3.2 | 6.4 | 0.00 | 0.00 | 0.05 | 66 | 1001.7 |
| 20260503040122 | 18 | 193 | 0.0 | 1.6 | 0.00 | 0.00 | 0.05 | 65 | 1001.7 |
| 20260503035122 | 18 | 150 | 1.6 | 3.2 | 0.00 | 0.00 | 0.05 | 65 | 1001.6 |
| 20260503034122 | 19 | 302 | 3.2 | 8.0 | 0.00 | 0.00 | 0.05 | 61 | 1001.6 |
| 20260503033143 | 18 | 161 | 3.2 | 6.4 | 0.00 | 0.00 | 0.05 | 64 | 1001.4 |
| 20260503032122 | 18 | 174 | 3.2 | 9.7 | 0.00 | 0.00 | 0.05 | 63 | 1001.4 |
| 20260503031122 | 19 | 205 | 8.0 | 14.5 | 0.00 | 0.00 | 0.05 | 61 | 1001.3 |
| 20260503030122 | 19 | 195 | 9.7 | 16.1 | 0.00 | 0.00 | 0.05 | 62 | 1001.1 |
| 20260503025122 | 20 | 206 | 8.0 | 19.3 | 0.00 | 0.00 | 0.05 | 59 | 1001.2 |
| 20260503024122 | 21 | 209 | 6.4 | 16.1 | 0.00 | 0.00 | 0.05 | 56 | 1001.0 |
| 20260503023122 | 22 | 196 | 8.0 | 14.5 | 0.00 | 0.00 | 0.05 | 53 | 1000.7 |
| 20260503022122 | 22 | 200 | 8.0 | 14.5 | 0.00 | 0.00 | 0.05 | 52 | 1000.7 |
| 20260503021122 | 22 | 205 | 4.8 | 9.7 | 0.00 | 0.00 | 0.05 | 51 | 1000.3 |
| 20260503020122 | 23 | 218 | 6.4 | 8.0 | 0.00 | 0.00 | 0.05 | 48 | 1000.1 |
| 20260503015122 | 22 | 206 | 4.8 | 9.7 | 0.00 | 0.00 | 0.05 | 50 | 1000.0 |
| 20260503014122 | 23 | 191 | 6.4 | 9.7 | 0.00 | 0.00 | 0.05 | 49 | 999.9 |
| 20260503013122 | 22 | 173 | 4.8 | 9.7 | 0.00 | 0.00 | 0.05 | 51 | 999.8 |
| 20260503012122 | 25 | 338 | 4.8 | 9.7 | 0.00 | 0.00 | 0.05 | 46 | 999.9 |
| 20260503011123 | 25 | 348 | 6.4 | 8.0 | 0.00 | 0.00 | 0.05 | 45 | 1000.0 |
| 20260503010122 | 24 | 356 | 8.0 | 11.3 | 0.00 | 0.00 | 0.05 | 46 | 999.9 |
| 20260503005123 | 25 | 349 | 4.8 | 11.3 | 0.00 | 0.00 | 0.05 | 44 | 1000.0 |
| 20260503004122 | 25 | 5 | 4.8 | 9.7 | 0.00 | 0.00 | 0.05 | 46 | 1000.1 |
| 20260503003123 | 24 | 13 | 6.4 | 14.5 | 0.00 | 0.00 | 0.05 | 46 | 1000.0 |
| 20260503002122 | 23 | 358 | 4.8 | 8.0 | 0.00 | 0.00 | 0.05 | 48 | 1000.1 |
| 20260503001122 | 23 | 351 | 6.4 | 9.7 | 0.00 | 0.00 | 0.05 | 47 | 1000.1 |
| 20260503000122 | 23 | 354 | 8.0 | 14.5 | 0.00 | 0.00 | 0.05 | 48 | 1000.0 |
| 20260502235122 | 23 | 3 | 6.4 | 12.9 | 0.00 | 0.00 | 0.05 | 48 | 1000.0 |
| 20260502234143 | 23 | 356 | 8.0 | 16.1 | 0.00 | 0.00 | 0.05 | 48 | 1000.2 |
| 20260502233122 | 23 | 15 | 9.7 | 16.1 | 0.00 | 0.00 | 0.05 | 48 | 1000.3 |
| 20260502232122 | 23 | 344 | 6.4 | 12.9 | 0.00 | 0.00 | 0.05 | 48 | 1000.4 |
| 20260502231122 | 22 | 355 | 6.4 | 12.9 | 0.00 | 0.00 | 0.05 | 48 | 1000.6 |
| 20260502230122 | 22 | 358 | 4.8 | 9.7 | 0.00 | 0.00 | 0.05 | 49 | 1000.7 |
| 20260502225122 | 23 | 347 | 6.4 | 12.9 | 0.00 | 0.00 | 0.05 | 47 | 1000.8 |
| 20260502224143 | 23 | 18 | 4.8 | 14.5 | 0.00 | 0.00 | 0.05 | 45 | 1001.1 |
| 20260502223122 | 23 | 15 | 3.2 | 6.4 | 0.00 | 0.00 | 0.05 | 48 | 1001.2 |
| 20260502222122 | 22 | 329 | 3.2 | 9.7 | 0.00 | 0.00 | 0.05 | 49 | 1001.5 |
| 20260502221123 | 22 | 328 | 8.0 | 17.7 | 0.00 | 0.00 | 0.05 | 50 | 1001.7 |
| 20260502220122 | 21 | 10 | 8.0 | 12.9 | 0.00 | 0.00 | 0.05 | 50 | 1001.7 |
| 20260502215122 | 22 | 50 | 4.8 | 11.3 | 0.00 | 0.00 | 0.05 | 48 | 1001.9 |
| 20260502214122 | 22 | 33 | 3.2 | 8.0 | 0.00 | 0.00 | 0.05 | 48 | 1001.9 |
| 20260502213123 | 21 | 350 | 4.8 | 9.7 | 0.00 | 0.00 | 0.05 | 52 | 1002.1 |